Regional Weather Roundup
Issued by NWS

Home | Current Version | Previous Version | Graphics & Text | Print | Product List | Glossary On
Versions: 1 2 3 4 5 6 7 8 9 10 11 12 13 14 15 16 17 18 19 20 21 22 23 24 25 26 27 28 29 30 31 32 33 34 35 36 37 38 39 40 41 42 43 44 45 46 47 48 49 50
000
ASUS43 KFSD 271810
RWRSD

WEATHER ROUNDUP FOR SOUTH DAKOTA
NATIONAL WEATHER SERVICE SIOUX FALLS SD
100 PM CDT THU JUL 27 2017

NOTE: "FAIR" INDICATES FEW OR NO CLOUDS BELOW 12,000 FEET WITH NO
SIGNIFICANT WEATHER AND/OR OBSTRUCTIONS TO VISIBILITY.


SDZ001>005-009-010-012>017-271900-
NORTHWEST AND NORTH CENTRAL SOUTH DAKOTA

CITY           SKY/WX    TMP DP  RH WIND       PRES   REMARKS
BUFFALO          N/A     85  59  41 SE21G36   30.00F
FAITH            N/A     84  53  34 S15G23    30.11S
MOBRIDGE       SUNNY     82  63  52 S10       30.10F
$$

SDZ012>016-024>037-041>051-057-063-072>074-271900-
SOUTHWEST AND SOUTH CENTRAL SOUTH DAKOTA

CITY           SKY/WX    TMP DP  RH WIND       PRES   REMARKS
RAPID CTY ARPT LGT RAIN  64  59  83 SW18      30.17R
PIERRE         SUNNY     85  53  33 E10G17    30.10F
CUSTER         TSTM      58  56  93 E15G22    30.27S FOG
ELLSWORTH AFB  CLOUDY    69  56  65 SW23      30.15R
PHILIP         CLOUDY    87  52  29 SE14      30.11F
PINE RIDGE     CLOUDY    70  50  49 SE8       30.18S
SPEARFISH      LGT RAIN  82  59  44 SE18G29   30.07F
WINNER           N/A    N/A N/A N/A MISG      30.14S
$$

SDZ004>011-016>023-039-040-271900-
NORTHEAST SOUTH DAKOTA

CITY           SKY/WX    TMP DP  RH WIND       PRES   REMARKS
ABERDEEN       SUNNY     79  59  50 E6        30.14S
WATERTOWN      MOSUNNY   81  61  50 CALM      30.13F
BROOKINGS      PTSUNNY   76  61  59 CALM      30.14F
SISSETON         N/A     80  59  48 VRB3      30.12S
$$

SDZ017-020-022-023-036>040-048>070-271900-
SOUTHEAST SOUTH DAKOTA

CITY           SKY/WX    TMP DP  RH WIND       PRES   REMARKS
SIOUX FALLS    PTSUNNY   81  63  54 VRB6      30.12F
HURON          SUNNY     81  61  50 E5        30.12F
CHAMBERLAIN    SUNNY     84  60  42 E6        30.13F
MITCHELL       PTSUNNY   82  62  50 VRB3      30.12F
YANKTON        MOSUNNY   80  59  48 NE7       30.11F
$$

ABBREVIATIONS USED IN REMARKS
   TC - TEMPERATURE IN CELSIUS
  WCI - WIND CHILL INDEX
   HX - HEAT INDEX
  VSB - VISIBILITY





USA.gov is the U.S. government's official web portal to all federal, state and local government web resources and services.